Location: Blackfoot
(53.5367°N, 112.7800°W)
Time: 23:08:33
(UTC-06:00)

Amateur Radio Satellites - All Passes

Search period start: 27 August 2016 22:38
Search period end: 28 August 2016 22:38
Location: Blackfoot, 53.5367°N, 112.7800°W

Satellite Date Start Highest point End Downlink Frequencies (MHz)
Time Altitude Azimuth
GONETS M04 27 Aug 22:40:51 22:49:11 42° 63° (ENE) 22:57:26
ESTCUBE 1 27 Aug 22:40:55 22:44:28 23° 59° (ENE) 22:48:02 437.505/2401.250
HO-68 27 Aug 22:42:16 22:46:05 15° 279° (W) 22:49:55 435.675
AISAT 27 Aug 22:49:13 22:52:20 19° 55° (NE) 22:55:26 437.250
ZACube-1 27 Aug 22:49:19 22:52:55 24° 268° (W) 22:56:28 437.345
UKube-1 27 Aug 22:58:36 23:00:42 13° 51° (NE) 23:02:48 .
UNISAT 6 27 Aug 23:03:40 23:07:05 22° 91° (E) 23:10:27 437.425
DELFI C3 27 Aug 23:14:45 23:18:00 24° 267° (W) 23:21:17 145.870
CUSAT 1 27 Aug 23:26:06 23:27:56 14° 81° (E) 23:29:59 437.405
O/OREOS (USA 219) 27 Aug 23:26:33 23:31:03 49° 53° (NE) 23:35:31 437.305
HUMSAT D 27 Aug 23:33:53 23:37:35 31° 265° (W) 23:41:17 437.325/437.525
VELOX 1 27 Aug 23:35:12 23:39:21 39° 65° (ENE) 23:43:31 145.980
CUBEBUG 1 27 Aug 23:36:43 23:40:55 45° 67° (ENE) 23:45:11 437.445
AUBIESAT-1 27 Aug 23:38:17 23:42:53 59° 252° (WSW) 23:47:27 437.475
Cosmos 2499 27 Aug 23:39:57 23:47:01 59° 72° (ENE) 23:53:59 435.465 / 435.565
ANTELSAT 27 Aug 23:40:12 23:44:23 46° 99° (E) 23:48:29 437.575/2403.000
SO-50 27 Aug 23:40:23 23:42:45 14° 110° (ESE) 23:45:07 436.795
M-CUBED/EXP-1 PRIME 27 Aug 23:44:15 23:48:47 46° 255° (WSW) 23:53:18 437.505
POPSAT HIP 1 27 Aug 23:47:04 23:47:47 10° 84° (E) 23:48:29 437.405
PRISM 27 Aug 23:47:48 23:51:15 25° 299° (WNW) 23:54:43 437.425
DX 1 27 Aug 23:51:54 23:55:59 40° 65° (ENE) 00:00:07 434.975-435.025
SPROUT 27 Aug 23:53:52 23:57:42 32° 64° (ENE) 00:01:32 437.525
50 SAT 28 Aug 00:00:48 00:04:19 59° 72° (ENE) 00:07:53 437.505
TIGRISAT 28 Aug 00:11:03 00:15:25 84° 106° (ESE) 00:19:40 435.000
DUCHIFAT 1 28 Aug 00:12:52 00:15:37 17° 89° (E) 00:18:20 145.980
TISAT 1 28 Aug 00:13:44 00:16:19 16° 55° (NE) 00:18:53 437.305
QB50P2 28 Aug 00:15:30 00:18:44 21° 91° (E) 00:21:55 145.880/145.840
ESTCUBE 1 28 Aug 00:16:32 00:20:58 59° 258° (WSW) 00:25:27 437.505/2401.250
POLYITAN 1 28 Aug 00:18:01 00:21:15 21° 91° (E) 00:24:27 437.675
AISAT 28 Aug 00:23:49 00:28:17 79° 254° (WSW) 00:32:49 437.250
DANDE 28 Aug 00:24:58 00:26:23 13° 86° (E) 00:27:56 436.750
NANOSAT C BR1 28 Aug 00:26:20 00:29:45 23° 92° (E) 00:33:08 145.865
UKube-1 28 Aug 00:31:42 00:36:00 72° 72° (ENE) 00:40:22 .
GONETS M04 28 Aug 00:37:49 00:46:32 63° 268° (W) 00:55:12
UNISAT 6 28 Aug 00:39:54 00:44:08 52° 291° (WNW) 00:48:16 437.425
JAS-2 28 Aug 00:55:53 01:01:52 34° 94° (E) 01:08:26 435.910
ITUPSAT 1 28 Aug 00:56:39 00:58:41 13° 48° (NE) 01:00:43 437.325
CUSAT 1 28 Aug 01:06:02 01:09:12 51° 290° (WNW) 01:13:17 437.405
O/OREOS (USA 219) 28 Aug 01:06:19 01:10:16 29° 254° (WSW) 01:14:12 437.305
BUGSAT 1 28 Aug 01:06:41 01:10:09 25° 93° (E) 01:13:33 437.445
QB50P1 28 Aug 01:10:04 01:14:18 60° 102° (ESE) 01:18:27 145.935-145.965
VELOX 1 28 Aug 01:11:53 01:15:53 32° 264° (W) 01:19:55 145.980
CUBEBUG 1 28 Aug 01:13:39 01:17:24 27° 267° (W) 01:21:13 437.445
ANTELSAT 28 Aug 01:17:18 01:20:55 26° 299° (WNW) 01:24:29 437.575/2403.000
SO-50 28 Aug 01:17:37 01:22:26 67° 130° (SE) 01:27:12 436.795
POPSAT HIP 1 28 Aug 01:20:07 01:24:22 74° 104° (ESE) 01:28:34 437.405
SWISSCUBE 28 Aug 01:27:32 01:31:10 22° 56° (ENE) 01:34:49 437.505
DX 1 28 Aug 01:28:24 01:32:17 30° 265° (W) 01:36:12 434.975-435.025
SPROUT 28 Aug 01:29:33 01:33:35 38° 263° (W) 01:37:39 437.525
Cosmos 2499 28 Aug 01:33:34 01:39:47 34° 276° (W) 01:45:58 435.465 / 435.565
50 SAT 28 Aug 01:36:10 01:38:16 15° 270° (W) 01:40:24 437.505
BEESAT 28 Aug 01:44:13 01:48:10 27° 59° (ENE) 01:52:09 436.000
RS-15 28 Aug 01:45:23 01:55:51 41° 110° (ESE) 02:06:46 29.354- 29.394
TISAT 1 28 Aug 01:47:07 01:51:24 88° 254° (WSW) 01:55:41 437.305
DUCHIFAT 1 28 Aug 01:47:35 01:51:48 69° 288° (WNW) 01:55:58 145.980
TIGRISAT 28 Aug 01:48:49 01:51:33 17° 305° (NW) 01:54:15 435.000
QB50P2 28 Aug 01:50:43 01:54:53 55° 290° (WNW) 01:59:00 145.880/145.840
POLYITAN 1 28 Aug 01:53:14 01:57:23 54° 291° (WNW) 02:01:30 437.675
NANOSAT C BR1 28 Aug 02:01:39 02:05:45 48° 291° (WNW) 02:09:47 145.865
AISAT 28 Aug 02:03:45 02:05:33 12° 275° (W) 02:07:21 437.250
DANDE 28 Aug 02:06:21 02:08:47 29° 294° (WNW) 02:11:36 436.750
UKube-1 28 Aug 02:09:44 02:12:33 17° 271° (W) 02:15:24 .
Gurwin Techsat 1B 28 Aug 02:17:26 02:20:35 16° 85° (E) 02:23:42 435.225
Cosmos 2491 28 Aug 02:21:15 02:23:09 11° 24° (NNE) 02:25:03 435.465 / 435.565
ITUPSAT 1 28 Aug 02:30:56 02:35:37 59° 69° (ENE) 02:40:19 437.325
GONETS M04 28 Aug 02:36:25 02:41:32 17° 291° (WNW) 02:46:38
JAS-2 28 Aug 02:40:49 02:47:15 65° 292° (WNW) 02:54:29 435.910
BUGSAT 1 28 Aug 02:41:45 02:45:44 44° 293° (WNW) 02:49:39 437.445
Oscar 19 28 Aug 02:42:53 02:47:53 44° 98° (E) 02:52:51 437.125/150
QB50P1 28 Aug 02:46:32 02:49:44 21° 301° (WNW) 02:52:54 145.935-145.965
POPSAT HIP 1 28 Aug 02:56:49 02:59:41 18° 303° (WNW) 03:02:33 437.405
SO-50 28 Aug 02:58:46 03:03:15 37° 331° (NNW) 03:07:40 436.795
SWISSCUBE 28 Aug 03:03:49 03:08:33 70° 256° (WSW) 03:13:20 437.505
BEESAT 28 Aug 03:21:02 03:25:43 55° 259° (W) 03:30:25 436.000
KKS-1 28 Aug 03:23:33 03:27:25 29° 61° (ENE) 03:31:18 437.445
DUCHIFAT 1 28 Aug 03:25:02 03:26:44 12° 308° (NW) 03:28:26 145.980
TISAT 1 28 Aug 03:25:46 03:27:43 13° 274° (W) 03:29:40 437.305
QB50P2 28 Aug 03:29:08 03:29:48 10° 311° (NW) 03:30:28 145.880/145.840
MOZHAYETS 4 28 Aug 03:31:29 03:35:42 38° 65° (ENE) 03:39:57
POLYITAN 1 28 Aug 03:31:48 03:32:18 10° 311° (NW) 03:32:49 437.675
RS-15 28 Aug 03:55:34 04:07:24 83° 317° (NW) 04:19:50 29.354- 29.394
Gurwin Techsat 1B 28 Aug 03:56:01 04:01:24 82° 106° (ESE) 04:06:43 435.225
ITAMSAT 1 28 Aug 03:57:57 04:02:36 32° 95° (E) 04:07:14 435.822/435.867
STARS 28 Aug 03:58:19 04:02:15 32° 62° (ENE) 04:06:12 437.465
ITUPSAT 1 28 Aug 04:10:01 04:13:49 23° 268° (W) 04:17:40 437.325
Cosmos 2491 28 Aug 04:16:32 04:24:02 30° 55° (NE) 04:31:31 435.465 / 435.565
Oscar 19 28 Aug 04:22:24 04:27:10 37° 298° (WNW) 04:31:54 437.125/150
JAS-2 28 Aug 04:27:02 04:31:22 19° 312° (NW) 04:36:00 435.910
SO-50 28 Aug 04:41:12 04:44:55 22° 355° (N) 04:48:36 436.795
SWISSCUBE 28 Aug 04:45:43 04:47:16 11° 276° (W) 04:48:50 437.505
AO-7 28 Aug 04:46:56 04:54:45 42° 98° (E) 05:02:29 29.400- 29.500
CUBESAT XI-V 28 Aug 04:52:35 04:56:48 36° 64° (ENE) 05:01:02 437.345
KKS-1 28 Aug 04:59:31 05:03:50 45° 261° (W) 05:08:11 437.445
MOZHAYETS 4 28 Aug 05:08:49 05:12:57 33° 265° (W) 05:17:06
AO-85 28 Aug 05:18:38 05:21:18 14° 111° (ESE) 05:23:55 145.980
STARS 28 Aug 05:34:21 05:38:32 40° 262° (W) 05:42:45 437.465
Gurwin Techsat 1B 28 Aug 05:36:46 05:40:48 22° 306° (NW) 05:44:50 435.225
ITAMSAT 1 28 Aug 05:37:18 05:42:17 48° 295° (WNW) 05:47:15 435.822/435.867
YUBILEINY 28 Aug 05:40:53 05:47:30 25° 75° (ENE) 05:54:06 435.215
HORYU 2 28 Aug 06:06:25 06:10:21 30° 95° (E) 06:14:14 437.375
RS-15 28 Aug 06:09:57 06:21:37 52° 348° (NNW) 06:33:41 29.354- 29.394
Cosmos 2491 28 Aug 06:13:17 06:22:11 89° 255° (WSW) 06:31:03 435.465 / 435.565
GOMX 1 28 Aug 06:13:52 06:15:55 12° 79° (E) 06:17:56 467.674
SO-50 28 Aug 06:22:41 06:26:46 27° 20° (NNE) 06:30:45 436.795
STRAND 1 28 Aug 06:24:15 06:28:22 25° 57° (ENE) 06:32:30 437.568
CUBESAT XI-V 28 Aug 06:29:55 06:34:11 37° 264° (W) 06:38:31 437.345
Cubesat XI-IV 28 Aug 06:30:44 06:33:33 14° 85° (E) 06:36:21 437.490
BRITE-PL 28 Aug 06:38:09 06:43:23 36° 93° (E) 06:48:33 437.365/2234.400
AO-7 28 Aug 06:39:46 06:47:57 63° 300° (WNW) 06:56:04 29.400- 29.500
NOAA 15 28 Aug 06:41:17 06:45:19 21° 90° (E) 06:49:19 137.62
CUTE-I 28 Aug 06:41:55 06:45:28 18° 87° (E) 06:48:59 437.470
AO-85 28 Aug 06:55:53 07:01:03 65° 129° (SE) 07:05:53 145.980
ITAMSAT 1 28 Aug 07:18:47 07:20:39 12° 316° (NW) 07:22:31 435.822/435.867
NOAA 18 28 Aug 07:25:38 07:30:35 33° 95° (E) 07:35:28 137.9125
Cosmos 2504 28 Aug 07:28:56 07:36:16 37° 85° (E) 07:43:10 435.465 / 435.565
YUBILEINY 28 Aug 07:34:14 07:43:05 85° 100° (E) 07:51:58 435.215
PRISM 28 Aug 07:34:42 07:36:45 14° 53° (NE) 07:38:49 437.425
HORYU 2 28 Aug 07:42:52 07:47:02 41° 295° (WNW) 07:51:10 437.375
LilacSat-2 28 Aug 07:46:45 07:50:30 55° 101° (E) 07:54:12 437.200
GOMX 1 28 Aug 07:49:41 07:55:09 63° 101° (E) 08:00:22 467.674
DOVE 4 28 Aug 07:53:52 07:58:36 35° 94° (E) 08:03:05 437.250
STRAND 1 28 Aug 08:02:06 08:07:10 67° 257° (WSW) 08:12:17 437.568
SO-50 28 Aug 08:03:14 08:07:57 76° 43° (NE) 08:12:31 436.795
Cubesat XI-IV 28 Aug 08:09:12 08:14:34 76° 105° (ESE) 08:19:53 437.490
HO-68 28 Aug 08:11:02 08:16:08 20° 86° (E) 08:21:11 435.675
Cosmos 2491 28 Aug 08:11:06 08:17:55 26° 284° (WNW) 08:24:45 435.465 / 435.565
BRITE-PL 28 Aug 08:16:32 08:22:01 51° 293° (WNW) 08:27:29 437.365/2234.400
NOAA 15 28 Aug 08:20:21 08:25:41 75° 289° (WNW) 08:30:59 137.62
CUTE-I 28 Aug 08:20:55 08:26:16 88° 286° (WNW) 08:31:36 437.470
RS-15 28 Aug 08:24:50 08:36:53 56° 21° (NNE) 08:49:01 29.354- 29.394
CINEMA 3 28 Aug 08:30:56 08:34:37 23° 90° (E) 08:38:10 145.822/145.860
AO-7 28 Aug 08:33:09 08:39:19 24° 324° (NW) 08:45:27 29.400- 29.500
AO-85 28 Aug 08:37:05 08:41:50 38° 330° (NNW) 08:46:16 145.980
SEEDS 28 Aug 08:43:10 08:45:56 17° 88° (E) 08:48:42 437.485
CUBEBUG 2 28 Aug 08:47:26 08:47:40 10° 83° (E) 08:47:54 437.445
CANX-2 28 Aug 09:05:11 09:09:10 39° 97° (E) 09:13:09 2200.000
NOAA 18 28 Aug 09:06:10 09:11:29 51° 296° (WNW) 09:16:45 137.9125
PRISM 28 Aug 09:07:18 09:11:24 79° 73° (ENE) 09:15:34 437.425
ANTELSAT 28 Aug 09:10:22 09:13:09 16° 55° (NE) 09:15:55 437.575/2403.000
CUTE 1.7 + AOD 2 28 Aug 09:11:09 09:15:09 39° 97° (E) 09:19:08 437.475
AAUSAT CUBESAT 2 28 Aug 09:12:23 09:15:21 19° 90° (E) 09:18:20 437.432
COMPASS 1 28 Aug 09:20:41 09:24:16 27° 94° (E) 09:27:49 437.405
Cosmos 2504 28 Aug 09:21:06 09:29:19 64° 286° (WNW) 09:37:00 435.465 / 435.565
LilacSat-2 28 Aug 09:21:48 09:24:28 19° 300° (WNW) 09:27:08 437.200
GOMX 1 28 Aug 09:28:13 09:32:52 29° 301° (WNW) 09:37:22 467.674
DOVE 4 28 Aug 09:31:31 09:36:24 43° 295° (WNW) 09:41:01 437.250
YUBILEINY 28 Aug 09:33:27 09:41:03 31° 304° (NW) 09:48:42 435.215
AIST 1 28 Aug 09:34:45 09:38:35 31° 90° (E) 09:42:28
ISS 28 Aug 09:37:38 09:39:25 14° 143° (SE) 09:41:11 145.825
TIGRISAT 28 Aug 09:39:57 09:43:40 25° 61° (ENE) 09:47:20 435.000
SO-50 28 Aug 09:44:22 09:47:59 23° 244° (WSW) 09:51:31 436.795
STRAND 1 28 Aug 09:45:34 09:47:22 12° 277° (W) 09:49:10 437.568
CUSAT 1 28 Aug 09:47:34 09:53:01 36° 66° (ENE) 09:59:38 437.405
Cubesat XI-IV 28 Aug 09:49:59 09:54:10 24° 305° (NW) 09:58:20 437.490
BRITE-PL 28 Aug 09:56:38 09:59:19 14° 314° (NW) 10:02:00 437.365/2234.400
HO-68 28 Aug 09:57:46 10:05:01 80° 108° (ESE) 10:12:11 435.675
Oscar 11 28 Aug 10:00:10 10:03:41 24° 92° (E) 10:07:12 145.826/435.025
NOAA 15 28 Aug 10:01:14 10:04:41 18° 310° (NW) 10:08:07 137.62
CUTE-I 28 Aug 10:01:53 10:05:41 20° 308° (NW) 10:09:29 437.470
BEESAT 2 28 Aug 10:06:53 10:07:45 11° 110° (ESE) 10:08:37 435.950
CINEMA 3 28 Aug 10:07:35 10:12:07 54° 291° (WNW) 10:16:25 145.822/145.860
UNISAT 6 28 Aug 10:08:03 10:12:22 43° 67° (ENE) 10:16:37 437.425
FUNcube-1 28 Aug 10:08:33 10:12:04 25° 93° (E) 10:15:31 145.935
UWE-3 28 Aug 10:17:07 10:21:13 47° 99° (E) 10:25:14 435.000/436.395/437.385
SEEDS 28 Aug 10:17:55 10:22:06 68° 288° (WNW) 10:26:17 437.485
AO-85 28 Aug 10:19:44 10:23:28 21° 353° (N) 10:26:58 145.980
CUBEBUG 2 28 Aug 10:20:52 10:25:11 73° 104° (ESE) 10:29:22 437.445
BEESAT 3 28 Aug 10:20:54 10:24:05 24° 119° (ESE) 10:27:18 437.485
AO-7 28 Aug 10:25:53 10:29:14 13° 351° (N) 10:32:34 29.400- 29.500
ZACube-1 28 Aug 10:30:09 10:34:10 42° 98° (E) 10:38:06 437.345
QB50P1 28 Aug 10:34:33 10:37:19 17° 56° (NE) 10:40:05 145.935-145.965
RS-15 28 Aug 10:38:10 10:50:33 83° 230° (SW) 11:02:50 29.354- 29.394
CANX-2 28 Aug 10:41:15 10:44:57 30° 296° (WNW) 10:48:38 2200.000
POPSAT HIP 1 28 Aug 10:44:12 10:47:19 20° 58° (ENE) 10:50:26 437.405
ANTELSAT 28 Aug 10:44:42 10:49:17 87° 80° (E) 10:53:47 437.575/2403.000
PRISM 28 Aug 10:45:02 10:47:16 14° 272° (W) 10:49:32 437.425
DELFI C3 28 Aug 10:45:08 10:48:37 28° 94° (E) 10:52:06 145.870
AAUSAT CUBESAT 2 28 Aug 10:47:06 10:51:13 60° 289° (WNW) 10:55:20 437.432
CUTE 1.7 + AOD 2 28 Aug 10:47:13 10:50:54 29° 297° (WNW) 10:54:36 437.475
NOAA 18 28 Aug 10:48:27 10:51:01 14° 317° (NW) 10:53:34 137.9125
DANDE 28 Aug 10:50:55 10:55:30 39° 69° (ENE) 11:01:28 436.750
COMPASS 1 28 Aug 10:56:01 10:59:58 41° 293° (WNW) 11:03:54 437.405
DUCHIFAT 1 28 Aug 11:10:20 11:14:00 29° 63° (ENE) 11:17:40 145.980
HUMSAT D 28 Aug 11:10:28 11:13:57 26° 94° (E) 11:17:26 437.325/437.525
DOVE 4 28 Aug 11:11:56 11:12:48 10° 316° (NW) 11:13:39 437.250
AIST 1 28 Aug 11:12:04 11:16:08 36° 290° (WNW) 11:20:14
ISS 28 Aug 11:12:09 11:15:17 41° 161° (SSE) 11:18:25 145.825
QB50P2 28 Aug 11:13:48 11:17:42 35° 65° (ENE) 11:21:36 145.880/145.840
TIGRISAT 28 Aug 11:15:38 11:20:07 53° 260° (W) 11:24:31 435.000
POLYITAN 1 28 Aug 11:16:18 11:20:13 36° 65° (ENE) 11:24:08 437.675
JAS-2 28 Aug 11:16:31 11:20:57 27° 54° (NE) 11:25:44 435.910
Cosmos 2504 28 Aug 11:19:01 11:24:26 19° 311° (NW) 11:29:39 435.465 / 435.565
NANOSAT C BR1 28 Aug 11:24:08 11:28:07 39° 66° (ENE) 11:32:05 145.865
CUSAT 1 28 Aug 11:29:22 11:35:17 60° 262° (W) 11:42:35 437.405
Oscar 11 28 Aug 11:35:54 11:40:05 49° 291° (WNW) 11:44:14 145.826/435.025
YUBILEINY 28 Aug 11:39:20 11:41:46 11° 335° (NNW) 11:44:12 435.215
BEESAT 2 28 Aug 11:40:51 11:44:48 66° 130° (SE) 11:48:46 435.950
FUNcube-1 28 Aug 11:44:33 11:48:30 42° 293° (WNW) 11:52:24 145.935
UNISAT 6 28 Aug 11:45:15 11:49:14 29° 266° (W) 11:53:11 437.425
HO-68 28 Aug 11:46:03 11:52:10 31° 310° (NW) 11:58:16 435.675
CINEMA 3 28 Aug 11:46:57 11:48:14 11° 312° (NW) 11:49:30 145.822/145.860
GONETS M04 28 Aug 11:50:58 11:58:37 36° 82° (E) 12:06:20
UWE-3 28 Aug 11:54:02 11:57:29 25° 299° (WNW) 12:00:53 435.000/436.395/437.385
SEEDS 28 Aug 11:55:27 11:57:03 12° 308° (NW) 11:58:41 437.485
BEESAT 3 28 Aug 11:57:36 12:01:29 59° 319° (NW) 12:05:26 437.485
CUBEBUG 2 28 Aug 11:58:25 12:01:20 18° 303° (WNW) 12:04:12 437.445
AO-85 28 Aug 12:01:26 12:05:19 25° 17° (NNE) 12:08:56 145.980
BUGSAT 1 28 Aug 12:01:58 12:05:58 41° 66° (ENE) 12:09:58 437.445
ESTCUBE 1 28 Aug 12:03:05 12:06:25 20° 90° (E) 12:09:43 437.505/2401.250
ZACube-1 28 Aug 12:06:47 12:10:19 27° 298° (WNW) 12:13:48 437.345
QB50P1 28 Aug 12:08:18 12:12:35 81° 257° (WSW) 12:16:53 145.935-145.965
Gurwin Techsat 1B 28 Aug 12:08:51 12:10:28 11° 43° (NE) 12:12:05 435.225
AISAT 28 Aug 12:09:02 12:11:15 13° 86° (E) 12:13:26 437.250
AO-7 28 Aug 12:14:27 12:18:42 15° 19° (NNE) 12:22:57 29.400- 29.500
POPSAT HIP 1 28 Aug 12:18:27 12:22:42 67° 257° (WSW) 12:26:59 437.405
DELFI C3 28 Aug 12:19:52 12:23:33 36° 294° (WNW) 12:27:15 145.870
AIST 2 28 Aug 12:23:37 12:25:30 13° 111° (ESE) 12:27:24 435.215
ANTELSAT 28 Aug 12:24:03 12:26:37 15° 273° (W) 12:29:10 437.575/2403.000
Cosmos 2499 28 Aug 12:24:04 12:31:17 40° 87° (E) 12:38:04 435.465 / 435.565
AAUSAT CUBESAT 2 28 Aug 12:24:55 12:25:54 11° 309° (NW) 12:26:52 437.432
Oscar 19 28 Aug 12:28:19 12:32:25 24° 56° (NE) 12:36:32 437.125/150
DANDE 28 Aug 12:33:35 12:38:19 42° 264° (W) 12:44:27 436.750
DUCHIFAT 1 28 Aug 12:45:33 12:49:35 41° 262° (W) 12:53:38 145.980
AUBIESAT-1 28 Aug 12:45:53 12:49:47 37° 103° (ESE) 12:53:24 437.475
HUMSAT D 28 Aug 12:45:53 12:49:43 40° 293° (WNW) 12:53:33 437.325/437.525
PCSat 28 Aug 12:47:16 12:52:24 45° 119° (ESE) 12:57:34 145.827
ISS 28 Aug 12:48:17 12:51:33 63° 181° (S) 12:54:48 145.825
QB50P2 28 Aug 12:49:39 12:53:32 33° 264° (W) 12:57:26 145.880/145.840
RS-15 28 Aug 12:51:21 13:01:28 32° 256° (WSW) 13:11:30 29.354- 29.394
M-CUBED/EXP-1 PRIME 28 Aug 12:52:09 12:56:21 52° 106° (ESE) 13:00:12 437.505
POLYITAN 1 28 Aug 12:52:11 12:56:03 32° 264° (W) 12:59:57 437.675
CUBEBUG 1 28 Aug 12:54:57 12:59:07 37° 97° (E) 13:03:14 437.445
VELOX 1 28 Aug 12:55:03 12:59:04 31° 95° (E) 13:03:03 145.980
50 SAT 28 Aug 12:56:19 12:59:34 29° 96° (E) 13:02:48 437.505
NANOSAT C BR1 28 Aug 13:00:12 13:03:56 29° 265° (W) 13:07:42 145.865
JAS-2 28 Aug 13:00:23 13:05:38 66° 258° (WSW) 13:11:23 435.910
SPROUT 28 Aug 13:09:03 13:12:35 24° 92° (E) 13:16:05 437.525
DX 1 28 Aug 13:09:39 13:13:33 30° 95° (E) 13:17:25 434.975-435.025
CUSAT 1 28 Aug 13:13:21 13:16:30 14° 279° (W) 13:19:56 437.405
BEESAT 2 28 Aug 13:19:24 13:22:56 30° 331° (NNW) 13:26:31 435.950
HO-68 28 Aug 13:35:25 13:37:47 12° 334° (NNW) 13:40:09 435.675
BEESAT 3 28 Aug 13:36:52 13:39:54 21° 342° (NNW) 13:42:57 437.485
BUGSAT 1 28 Aug 13:37:46 13:41:28 28° 266° (W) 13:45:10 437.445
ESTCUBE 1 28 Aug 13:39:09 13:43:40 66° 289° (WNW) 13:48:10 437.505/2401.250
AO-85 28 Aug 13:42:02 13:46:33 68° 42° (NE) 13:50:41 145.980
AISAT 28 Aug 13:43:55 13:48:26 87° 103° (ESE) 13:52:54 437.250
Gurwin Techsat 1B 28 Aug 13:44:11 13:49:12 45° 64° (ENE) 13:54:15 435.225
ITAMSAT 1 28 Aug 13:44:51 13:48:31 20° 52° (NE) 13:52:12 435.822/435.867
GONETS M04 28 Aug 13:46:07 13:54:52 70° 285° (WNW) 14:03:45
O/OREOS (USA 219) 28 Aug 13:47:16 13:49:51 15° 99° (E) 13:52:27 437.305
QB50P1 28 Aug 13:47:32 13:49:05 12° 275° (W) 13:50:39 145.935-145.965
UKube-1 28 Aug 13:48:19 13:52:36 53° 101° (E) 13:56:51 .
AIST 2 28 Aug 13:59:10 14:03:17 75° 131° (SE) 14:07:27 435.215
AO-7 28 Aug 14:01:57 14:09:04 33° 45° (NE) 14:16:10 29.400- 29.500
Oscar 19 28 Aug 14:06:07 14:11:17 73° 256° (WSW) 14:16:31 437.125/150
Cosmos 2499 28 Aug 14:16:26 14:24:14 56° 289° (WNW) 14:31:31 435.465 / 435.565
AUBIESAT-1 28 Aug 14:20:27 14:24:12 31° 304° (NW) 14:27:41 437.475
ISS 28 Aug 14:24:43 14:27:47 36° 201° (SSW) 14:30:51 145.825
M-CUBED/EXP-1 PRIME 28 Aug 14:27:03 14:30:36 25° 308° (NW) 14:33:55 437.505
50 SAT 28 Aug 14:29:56 14:33:08 29° 295° (WNW) 14:36:20 437.505
PCSat 28 Aug 14:30:35 14:35:50 48° 321° (NW) 14:41:08 145.827
CUBEBUG 1 28 Aug 14:31:22 14:35:22 33° 296° (WNW) 14:39:20 437.445
VELOX 1 28 Aug 14:31:27 14:35:38 40° 295° (WNW) 14:39:48 145.980
SPROUT 28 Aug 14:44:38 14:48:46 47° 292° (WNW) 14:52:52 437.525
DX 1 28 Aug 14:45:43 14:49:51 40° 295° (WNW) 14:53:58 434.975-435.025
JAS-2 28 Aug 14:50:22 14:52:10 12° 281° (WNW) 14:54:01 435.910
SWISSCUBE 28 Aug 14:58:09 15:01:35 19° 90° (E) 15:05:00 437.505
BEESAT 2 28 Aug 14:59:15 15:01:54 17° 355° (N) 15:04:34 435.950
TISAT 1 28 Aug 15:00:13 15:04:28 68° 104° (ESE) 15:08:38 437.305
BEESAT 28 Aug 15:14:54 15:18:46 24° 92° (E) 15:22:38 436.000
BEESAT 3 28 Aug 15:16:17 15:18:52 16° 5° (N) 15:21:28 437.485
ESTCUBE 1 28 Aug 15:17:36 15:19:40 13° 309° (NW) 15:21:44 437.505/2401.250
AISAT 28 Aug 15:21:25 15:24:20 17° 305° (NW) 15:27:15 437.250
ITAMSAT 1 28 Aug 15:22:11 15:27:23 89° 66° (ENE) 15:32:36 435.822/435.867
AO-85 28 Aug 15:23:09 15:26:33 22° 244° (WSW) 15:29:45 145.980
O/OREOS (USA 219) 28 Aug 15:24:04 15:28:35 88° 292° (WNW) 15:33:11 437.305
Gurwin Techsat 1B 28 Aug 15:24:23 15:29:17 36° 264° (W) 15:34:12 435.225
UKube-1 28 Aug 15:24:53 15:28:24 24° 301° (WNW) 15:31:53 .
HORYU 2 28 Aug 15:37:06 15:38:51 12° 50° (NE) 15:40:36 437.375
AIST 2 28 Aug 15:38:30 15:42:09 29° 333° (NNW) 15:45:50 435.215
YUBILEINY 28 Aug 15:40:05 15:46:15 20° 44° (NE) 15:52:22 435.215
GONETS M04 28 Aug 15:47:00 15:53:37 23° 312° (NW) 16:00:20
Oscar 19 28 Aug 15:49:09 15:51:34 13° 276° (W) 15:54:01 437.125/150
AO-7 28 Aug 15:52:39 16:01:03 90° 244° (WSW) 16:09:28 29.400- 29.500
ISS 28 Aug 16:02:29 16:03:34 11° 220° (SW) 16:04:39 145.825
ITUPSAT 1 28 Aug 16:02:32 16:07:15 57° 102° (ESE) 16:11:57 437.325
Cosmos 2499 28 Aug 16:14:39 16:19:13 16° 314° (NW) 16:23:39 435.465 / 435.565
PCSat 28 Aug 16:16:17 16:20:31 22° 345° (NNW) 16:24:44 145.827
BRITE-PL 28 Aug 16:19:25 16:22:26 16° 49° (NE) 16:25:35 437.365/2234.400
Cubesat XI-IV 28 Aug 16:22:57 16:24:24 11° 42° (NE) 16:25:52 437.490
NOAA 15 28 Aug 16:30:52 16:33:42 15° 47° (NE) 16:36:32 137.62
CUTE-I 28 Aug 16:33:25 16:35:45 13° 45° (NE) 16:38:06 437.470
SWISSCUBE 28 Aug 16:35:08 16:39:53 72° 290° (WNW) 16:44:39 437.505
TISAT 1 28 Aug 16:36:41 16:39:42 19° 303° (WNW) 16:42:40 437.305
BEESAT 2 28 Aug 16:37:56 16:41:03 21° 18° (NNE) 16:44:09 435.950
KKS-1 28 Aug 16:44:15 16:47:48 22° 92° (E) 16:51:19 437.445
BEESAT 28 Aug 16:52:13 16:56:54 57° 292° (WNW) 17:01:34 436.000
BEESAT 3 28 Aug 16:54:08 16:57:41 29° 29° (NNE) 17:01:12 437.485
MOZHAYETS 4 28 Aug 16:56:42 17:00:58 37° 96° (E) 17:05:13
LilacSat-2 28 Aug 17:03:42 17:04:40 11° 54° (NE) 17:05:38 437.200
ITAMSAT 1 28 Aug 17:04:15 17:07:35 17° 273° (W) 17:10:57 435.822/435.867
HO-68 28 Aug 17:04:18 17:06:57 12° 27° (NNE) 17:09:36 435.675
O/OREOS (USA 219) 28 Aug 17:05:18 17:08:41 20° 322° (NW) 17:12:06 437.305
HORYU 2 28 Aug 17:10:10 17:14:35 61° 69° (ENE) 17:18:59 437.375
Cosmos 2504 28 Aug 17:13:04 17:18:19 20° 50° (NE) 17:23:27 435.465 / 435.565
STARS 28 Aug 17:17:21 17:20:58 24° 93° (E) 17:24:31 437.465
AIST 2 28 Aug 17:19:00 17:21:51 17° 357° (N) 17:24:43 435.215
NOAA 18 28 Aug 17:19:20 17:23:44 25° 54° (NE) 17:28:07 137.9125
GOMX 1 28 Aug 17:26:49 17:31:05 25° 57° (ENE) 17:35:30 467.674
Cosmos 2491 28 Aug 17:28:34 17:34:58 24° 74° (ENE) 17:41:24 435.465 / 435.565
DOVE 4 28 Aug 17:29:52 17:32:59 16° 51° (NE) 17:36:07 437.250
YUBILEINY 28 Aug 17:36:33 17:45:17 62° 72° (ENE) 17:53:55 435.215
ITUPSAT 1 28 Aug 17:40:53 17:44:49 26° 301° (WNW) 17:48:45 437.325
AO-7 28 Aug 17:48:11 17:54:56 27° 270° (W) 18:01:44 29.400- 29.500
BRITE-PL 28 Aug 17:54:55 17:59:54 66° 71° (ENE) 18:05:19 437.365/2234.400
Cubesat XI-IV 28 Aug 17:58:13 18:03:14 43° 63° (ENE) 18:08:16 437.490
PCSat 28 Aug 18:01:41 18:05:47 21° 11° (N) 18:09:52 145.827
CINEMA 3 28 Aug 18:05:24 18:06:24 11° 47° (NE) 18:07:24 145.822/145.860
NOAA 15 28 Aug 18:07:20 18:12:31 61° 67° (ENE) 18:17:44 137.62
CUTE-I 28 Aug 18:09:34 18:14:44 52° 66° (ENE) 18:19:53 437.470
SWISSCUBE 28 Aug 18:14:16 18:16:55 15° 309° (NW) 18:19:34 437.505
BEESAT 2 28 Aug 18:15:37 18:19:37 60° 41° (NE) 18:23:35 435.950
CUBESAT XI-V 28 Aug 18:19:27 18:23:48 36° 96° (E) 18:28:09 437.345
KKS-1 28 Aug 18:20:18 18:24:42 56° 291° (WNW) 18:29:04 437.445
CANX-2 28 Aug 18:31:40 18:32:52 11° 51° (NE) 18:34:06 2200.000
BEESAT 3 28 Aug 18:31:42 18:35:40 66° 230° (SW) 18:39:36 437.485
BEESAT 28 Aug 18:31:49 18:33:46 12° 312° (NW) 18:35:44 436.000
MOZHAYETS 4 28 Aug 18:33:59 18:38:08 35° 296° (WNW) 18:42:18
LilacSat-2 28 Aug 18:34:28 18:38:17 70° 73° (ENE) 18:42:06 437.200
CUTE 1.7 + AOD 2 28 Aug 18:37:32 18:38:46 11° 51° (NE) 18:40:00 437.475
HO-68 28 Aug 18:46:25 18:52:38 33° 52° (NE) 18:58:51 435.675
HORYU 2 28 Aug 18:48:12 18:51:33 20° 269° (W) 18:54:53 437.375
STARS 28 Aug 18:53:18 18:57:36 51° 292° (WNW) 19:01:51 437.465
AIST 2 28 Aug 18:58:14 19:01:39 23° 21° (NNE) 19:05:03 435.215
NOAA 18 28 Aug 18:58:21 19:03:55 78° 254° (WSW) 19:09:29 137.9125
GOMX 1 28 Aug 19:03:28 19:08:40 72° 258° (WSW) 19:14:11 467.674
DOVE 4 28 Aug 19:04:34 19:09:46 67° 71° (ENE) 19:15:05 437.250
Cosmos 2504 28 Aug 19:05:52 19:13:14 74° 76° (ENE) 19:20:23 435.465 / 435.565
Cosmos 2491 28 Aug 19:21:48 19:30:31 83° 98° (E) 19:39:21 435.465 / 435.565
YUBILEINY 28 Aug 19:33:49 19:41:47 41° 276° (W) 19:49:42 435.215
BRITE-PL 28 Aug 19:34:51 19:38:55 24° 272° (W) 19:43:14 437.365/2234.400
AIST 1 28 Aug 19:35:05 19:38:10 18° 61° (ENE) 19:41:13
CINEMA 3 28 Aug 19:37:42 19:42:28 46° 67° (ENE) 19:47:10 145.822/145.860
Cubesat XI-IV 28 Aug 19:38:27 19:43:24 38° 264° (W) 19:48:23 437.490
SEEDS 28 Aug 19:40:43 19:44:11 26° 62° (ENE) 19:47:42 437.485
PCSat 28 Aug 19:45:26 19:50:35 41° 36° (NE) 19:55:42 145.827
UWE-3 28 Aug 19:45:46 19:48:21 15° 55° (NE) 19:50:56 435.000/436.395/437.385
NOAA 15 28 Aug 19:48:19 19:52:41 26° 268° (W) 19:57:07 137.62
CUBEBUG 2 28 Aug 19:49:25 19:52:57 22° 59° (ENE) 19:56:25 437.445
CUTE-I 28 Aug 19:50:19 19:55:02 31° 266° (W) 19:59:45 437.470
BEESAT 2 28 Aug 19:53:53 19:57:10 24° 241° (WSW) 20:00:26 435.950
GONETS M04 28 Aug 19:56:44 19:57:59 10° 21° (NNE) 19:59:12
CUBESAT XI-V 28 Aug 19:56:53 20:01:14 37° 295° (WNW) 20:05:33 437.345
ZACube-1 28 Aug 19:58:14 20:00:24 14° 54° (NE) 20:02:31 437.345
KKS-1 28 Aug 19:58:59 20:00:22 11° 312° (NW) 20:01:45 437.445
CANX-2 28 Aug 20:03:47 20:07:56 62° 71° (ENE) 20:12:06 2200.000
STRAND 1 28 Aug 20:06:18 20:10:37 27° 92° (E) 20:14:54 437.568
AAUSAT CUBESAT 2 28 Aug 20:08:27 20:11:59 28° 63° (ENE) 20:15:32 437.432
CUTE 1.7 + AOD 2 28 Aug 20:09:39 20:13:48 62° 71° (ENE) 20:17:59 437.475
LilacSat-2 28 Aug 20:10:56 20:13:03 14° 272° (W) 20:15:10 437.200
BEESAT 3 28 Aug 20:11:38 20:12:35 11° 249° (WSW) 20:13:31 437.485
COMPASS 1 28 Aug 20:17:16 20:21:08 40° 67° (ENE) 20:25:01 437.405
STARS 28 Aug 20:32:23 20:33:00 10° 313° (NW) 20:33:37 437.465
HO-68 28 Aug 20:32:39 20:39:51 76° 253° (WSW) 20:47:06 435.675
AIST 2 28 Aug 20:36:36 20:40:48 71° 43° (NE) 20:44:59 435.215
NOAA 18 28 Aug 20:42:20 20:45:30 15° 274° (W) 20:48:41 137.9125
DOVE 4 28 Aug 20:43:41 20:47:55 24° 271° (W) 20:52:13 437.250
GOMX 1 28 Aug 20:45:05 20:47:47 14° 279° (W) 20:50:32 467.674
Cosmos 2504 28 Aug 21:00:02 21:05:55 27° 280° (W) 21:11:41 435.465 / 435.565
Oscar 11 28 Aug 21:00:43 21:04:44 40° 67° (ENE) 21:08:46 145.826/435.025
FUNcube-1 28 Aug 21:09:40 21:13:51 45° 68° (ENE) 21:17:58 145.935
AIST 1 28 Aug 21:11:53 21:16:19 72° 262° (W) 21:20:41
CINEMA 3 28 Aug 21:15:16 21:19:45 32° 266° (W) 21:24:10 145.822/145.860
SEEDS 28 Aug 21:15:46 21:19:45 43° 262° (W) 21:23:45 437.485
UWE-3 28 Aug 21:19:41 21:24:14 84° 74° (ENE) 21:28:40 435.000/436.395/437.385
Cosmos 2491 28 Aug 21:20:54 21:28:29 32° 303° (WNW) 21:36:09 435.465 / 435.565
CUBEBUG 2 28 Aug 21:24:36 21:29:14 65° 258° (WSW) 21:33:45 437.445
PCSat 28 Aug 21:28:54 21:34:14 57° 238° (WSW) 21:39:32 145.827
ZACube-1 28 Aug 21:31:36 21:36:01 75° 72° (ENE) 21:40:21 437.345
DELFI C3 28 Aug 21:36:50 21:40:30 38° 67° (ENE) 21:44:13 145.870
CANX-2 28 Aug 21:41:15 21:44:12 18° 271° (W) 21:47:10 2200.000
AAUSAT CUBESAT 2 28 Aug 21:43:30 21:47:22 39° 263° (W) 21:51:16 437.432
STRAND 1 28 Aug 21:45:08 21:50:09 57° 292° (WNW) 21:55:08 437.568
CUTE 1.7 + AOD 2 28 Aug 21:47:07 21:50:03 18° 271° (W) 21:53:01 437.475
GONETS M04 28 Aug 21:51:39 21:59:01 28° 53° (NE) 22:06:20
COMPASS 1 28 Aug 21:53:18 21:56:50 27° 267° (W) 22:00:23 437.405
AUBIESAT-1 28 Aug 22:03:23 22:07:12 26° 53° (NE) 22:10:56 437.475
Cosmos 2499 28 Aug 22:06:47 22:12:04 22° 53° (NE) 22:17:19 435.465 / 435.565
HUMSAT D 28 Aug 22:07:29 22:11:24 42° 68° (ENE) 22:15:18 437.325/437.525
O/OREOS (USA 219) 28 Aug 22:09:38 22:13:07 21° 39° (NE) 22:16:35 437.305
M-CUBED/EXP-1 PRIME 28 Aug 22:09:42 22:13:53 33° 56° (NE) 22:18:01 437.505
AIST 2 28 Aug 22:15:41 22:18:54 22° 243° (WSW) 22:22:07 435.215
PRISM 28 Aug 22:17:37 22:21:44 52° 101° (E) 22:25:49 437.425
CUBEBUG 1 28 Aug 22:23:31 22:25:33 13° 51° (NE) 22:27:34 437.445
HO-68 28 Aug 22:23:55 22:28:48 19° 275° (W) 22:33:43 435.675
VELOX 1 28 Aug 22:25:11 22:26:53 12° 49° (NE) 22:28:35 145.980
ANTELSAT 28 Aug 22:32:05 22:33:30 11° 84° (E) 22:34:54 437.575/2403.000
